Simultaneous Nadir Overpasses (SNOs) Predictions

Prediction of SNOs between METOP-B and TERRA Satellite Orbit:

Table of predicted SNOs for the next 14.0 days since TLE Epoch: 3/29/2013
Index Date (METOP-B) Time (METOP-B) Lat,Lon (METOP-B) SZA (METOP-B ) Date (TERRA) Time (TERRA) Lat,Lon (TERRA) SZA (TERRA ) Distance(km) Time Diff (sec)
1 03/30/2013 04:55:07 -81.29, -26.90 99.90 03/30/2013 04:56:05 -81.28, -27.07 99.90 2.98 58
2 03/30/2013 05:45:47 81.29, 140.55 80.10 03/30/2013 05:45:31 81.29, 140.70 80.11 2.46 16
3 04/02/2013 00:29:30 -81.28, 39.29 100.99 04/02/2013 00:30:22 -81.28, 39.33 100.96 0.75 52
4 04/02/2013 01:20:09 81.29,-152.93 79.06 04/02/2013 01:19:48 81.29,-152.93 79.04 0.43 21
5 04/04/2013 20:03:51 -81.29, 105.84 102.02 04/04/2013 20:04:38 -81.28, 105.67 102.02 2.98 47
6 04/
